sat.trackr.live / text

‹ back to catalog

STARLINK-31781

NORAD 59632 · 2024-082B

PAYLOAD ACTIVE UNKNOWN

§ Identity

Operator
Country
US
Launch date
2024-05-03
Launch site
AFETR
Launch vehicle
Mass (kg)
RCS (m²)

Purposes: comms

External: N2YO · Heavens-Above · Gunter

§ Orbital elements

Epoch: 2026-09-21T22:17:47.439456Z

Period
94.27 min
Inclination
43.0032°
Eccentricity
0.0001149
Mean motion
15.27578565 rev/d
Perigee alt
482.3 km
Apogee alt
483.8 km
Semi-major
6,861.2 km
B*
2.0560e-5
RAAN
97.4432°
Arg perigee
265.5446°
Mean anomaly
94.5274°
Rev number
13,502

§ Raw data

STARLINK-317811 59632U 24082B   26264.92902129  .00000304  00000+0  20560-4 0  99982 59632  43.0032  97.4432 0001149 265.5446  94.5274 15.27578565135028

JSON: /api/v1/satellites/59632 · /tle

For live sub-satellite position, see the globe view (requires WebGL).

§ Visibility from observer

Set your observer location to see the next 7 days of passes ≥ 10°. The values pass through the URL so the page stays shareable.

No JS? Fill the form by hand. The geolocation button needs JavaScript.